Location: Kerberlivit
(48.2787°N, 4.5413°W)
Time: 04:26:55
(UTC+00:00)

STARLINK-1155 - Pass Details

Date: 18 February 2020
Orbit: 553 x 556 km, 53.0° (Epoch: 02 April)

Event Time Altitude Azimuth Distance (km) Brightness Sun altitude
Exits shadow 04:02:47 20° 57° (ENE) 1,334 6.2 -33.2°
Drops below altitude 10° 04:04:11 10° 63° (ENE) 1,858 7.1 -33.0°
Enters shadow 05:03:08 -66° 262° (W) 12,214 10.4 -23.6°
